STARLINK-3295, 50840

Orbit data source: Space-Track

STARLINK-3295, 50840 is a payload satellite owned by SpaceX/Seattle (US) in LEO that was launched on Thu, 06 Jan 2022 UTC via an FALCON 9 launch vehicle from the Air Force Eastern Test Range (AFETR). Payload-class satellites include a variety of spacecraft equipped with specific instruments for various scientific and technological missions. These include communications satellites like Starlink; space stations such as the ISS; scientific satellites like the Hubble; Earth observation satellites from companies like Planet Labs, Umbra, and HawkEye 360; GPS; miniature CubeSats for education and research; and military/defense satellites.

Loading next visibility...
Identifier
50840, 2022-001AP
Orbit
LEO
Country
Flag of USUS
Related business
Manufacturer
SpaceX/Seattle
Mission
Operational Commercial Communications
Bus & Motor
STARLINK, Unknown motor
Mass
297 kg wet, ~275 kg dry
Launch date (UTC)
2022-01-06 (4 years ago)
Launch vehicle
FALCON 9
Launch site
Air Force Eastern Test Range (AFETR)
Object type
Payload
Rocket body
Debris
Shape & HBR
Box + 1 Pan, 10.1 m
Radar Cross Section
13.562 m², Large (>1 m²)

Expand to show TLE details & history
Last TLE update: 2 days ago

TLE from 2 days ago
0 STARLINK-3295
1 50840U 22001AP  26170.95438914  .00000568  00000-0  53805-4 0  9995
2 50840  53.1616  79.9260 0001278  87.5221 272.5917 15.08837155245699
Epoch: 2026-06-19T22:54Z
TLE epoch observation values (Epoch: 2026-06-19T22:54:19.221Z)
Latitude
-0.00001°
Longitude
-171.83005°
Altitude
540.604 km
Speed
7.593 km/s
True Right ascension
05h 19m 42s
True Declination
0° 00' 00"
Sunlit
Object was in daylight at epoch
Visualization orbit readout
Latitude
Unknown
Longitude
Unknown
Altitude
Unknown
Speed
Unknown
Apparent Right ascension
Unknown
Apparent Declination
Unknown
Sunlit
N/A
Visualization observer readout
Local Sidereal Time
21:23:38
Azimuth
Unknown
Elevation
Unknown
Doppler factor
Unknown
Orbital elements
Apogee altitude
540.89 km
Perigee altitude
539.122 km
Semi-major axis
6,918.143 km
Eccentricity
0.00013
Inclination
53.1616°
RAAN
79.926°
Arg. of periapsis
87.5221°
True anomaly
272.57707°
Mean anomaly
272.5917°
Eccentric anomaly
272.58439°
Mean motion
3.77189 °/min
Orbital period
95.44 mins
BSTAR
0.000053805
Loading maneuver chart data...
Computing Atmospheric mass density...
Loading historical data...
Loading historical data...
Loading historical data...
Loading historical data...
Loading historical data...
Loading historical data...
Loading historical data...

Documentation

Showing up to 5 results
|